Flag for Brazil Weather past 2 weeks in Tabatinga, Amazonas, Brazil

Now
75 °F

Passing clouds.


Feels Like: 73 °F
Forecast: 74 / 84 °F
Wind: No wind

Location: Leticia / Vasquez Cobo

Current Time: May 28, 2015 at 5:31:59 AM

Latest Report: May 28, 2015 at 4:00 AM


Visibility: N/A

Pressure: 29.83 "Hg

Humidity: 100%

Dew point: 75 °F

Location of TabatingaLocation

Historic Weather in Tabatinga — Graph

°F

Tabatinga temperature yesterday

Maximum temperature yesterday: 88 °F (at 12:00 PM)
Minimum temperature yesterday: 75 °F (at 6:00 AM)
Average temperature yesterday: 81 °F

Past Weeks' High & Low Weather Summary

 TemperatureHumidityPressure
High88 °F (May 16, 3:00 PM)100% (May 13, 4:00 AM)30.06 "Hg (May 13, 4:00 AM)
Low73 °F (May 13, 6:00 AM)70% (May 16, 3:00 PM)29.78 "Hg (May 25, 4:00 PM)
Average79 °F91%29.90 "Hg
* Reported May 13 4:00 AM — May 28 4:00 AM, Tabatinga, Weather by CustomWeather, © 2015

Note: Actual official high and low records may vary slightly from our data, if they occured in-between our weather recording intervals... More about our weather records

Advertising

Tabatinga weather history for previous 24 hours

 ConditionsComfort  
Time TempWeatherWind HumidityBarometerVisibility
4:00 AM
Thu, May 28
75 °FPassing clouds.No wind100%29.83 "HgN/A
3:00 AM77 °FPassing clouds.No wind94%29.83 "HgN/A
2:00 AM75 °FPassing clouds.No wind100%29.84 "HgN/A
12:00 AM77 °FPassing clouds.No wind94%29.87 "HgN/A
11:00 PM
Wed, May 27
77 °FPassing clouds.No wind94%29.88 "HgN/A
10:00 PM77 °FPassing clouds.No wind94%29.88 "HgN/A
9:00 PM77 °FPassing clouds.No wind100%29.87 "HgN/A
8:00 PM79 °FPartly cloudy.No wind94%29.85 "HgN/A
7:00 PM79 °FPartly cloudy.No wind94%29.83 "HgN/A
6:00 PM79 °FPartly cloudy.No wind94%29.79 "HgN/A
5:00 PM79 °FBroken clouds.No wind94%29.79 "HgN/A
4:00 PM79 °FPartly sunny.No wind94%29.79 "HgN/A
3:00 PM86 °FScattered showers. Broken clouds.3 mph79%29.78 "Hg5 mi
2:00 PM86 °FScattered clouds.No wind75%29.80 "HgN/A
1:00 PM86 °FPartly sunny.5 mph75%29.84 "HgN/A
12:00 PM88 °FPartly sunny.3 mph75%29.89 "HgN/A
11:00 AM86 °FPartly sunny.2 mph75%29.91 "HgN/A
10:00 AM84 °FPassing clouds.3 mph79%29.92 "HgN/A
9:00 AM82 °FScattered clouds.No wind84%29.93 "HgN/A
8:00 AM79 °FPartly sunny.No wind89%29.93 "HgN/A
7:00 AM75 °FFog.No wind100%29.90 "Hg0 mi
6:00 AM75 °FFog.No wind100%29.87 "Hg2 mi
Weather by CustomWeather, © 2015

See weather overviewHow to use our weather pages